sat.trackr.live / text

‹ back to catalog

STARLINK-11614 [DTC]

NORAD 63270 · 2025-053F

PAYLOAD ACTIVE UNKNOWN

§ Identity

Operator
Country
US
Launch date
2025-03-15
Launch site
AFETR
Launch vehicle
Mass (kg)
RCS (m²)

Purposes: comms

External: N2YO · Heavens-Above · Gunter

§ Orbital elements

Epoch: 2026-05-24T21:39:03.587040Z

Period
91.66 min
Inclination
43.0013°
Eccentricity
0.0002586
Mean motion
15.71018367 rev/d
Perigee alt
354.2 km
Apogee alt
357.7 km
Semi-major
6,734.1 km
B*
1.7100e-3
RAAN
13.0336°
Arg perigee
252.2144°
Mean anomaly
107.8442°
Rev number
6,965

§ Raw data

STARLINK-11614 [DTC]1 63270U 25053F   26144.90212485  .00226766  00000+0  17100-2 0  99902 63270  43.0013  13.0336 0002586 252.2144 107.8442 15.71018367 69659

JSON: /api/v1/satellites/63270 · /tle

For live sub-satellite position, see the globe view (requires WebGL).

§ Visibility from observer

Set your observer location to see the next 7 days of passes ≥ 10°. The values pass through the URL so the page stays shareable.

No JS? Fill the form by hand. The geolocation button needs JavaScript.